Year,Month,Day,Hour,Minute,Value (Times are PST for windspeed in km/hr)
2014,11,05,09,04,3.90
2014,11,05,09,05,3.00
2014,11,05,09,06,2.40
2014,11,05,09,07,3.10
2014,11,05,09,08,3.10
2014,11,05,09,09,1.80
2014,11,05,09,10,3.10
2014,11,05,09,11,2.60
2014,11,05,09,12,3.40
2014,11,05,09,13,3.50
2014,11,05,09,14,2.60
2014,11,05,09,17,2.00
2014,11,05,09,18,2.90
2014,11,05,09,19,3.50
2014,11,05,09,20,4.10
2014,11,05,09,21,3.90
2014,11,05,09,22,4.40
2014,11,05,09,23,3.00
2014,11,05,09,24,4.00
2014,11,05,09,25,2.90
2014,11,05,09,26,3.00
2014,11,05,09,27,3.90
2014,11,05,09,28,3.90
2014,11,05,09,29,3.90
2014,11,05,09,30,3.10
2014,11,05,09,31,3.40
2014,11,05,09,32,2.40
2014,11,05,09,33,2.40
2014,11,05,09,34,2.00
2014,11,05,09,35,2.30
2014,11,05,09,36,3.50
2014,11,05,09,37,2.80
2014,11,05,09,38,3.10
2014,11,05,09,39,2.00
2014,11,05,09,40,2.60
2014,11,05,09,41,3.10
2014,11,05,09,42,2.20
2014,11,05,09,43,2.80
2014,11,05,09,44,2.50
2014,11,05,09,45,3.10
2014,11,05,09,46,2.60
2014,11,05,09,47,3.10
2014,11,05,09,48,2.90
2014,11,05,09,49,3.50
2014,11,05,09,50,2.40
2014,11,05,09,51,2.90
2014,11,05,09,52,2.60
2014,11,05,09,53,3.30
2014,11,05,09,54,3.70
2014,11,05,09,55,3.60
2014,11,05,09,56,4.30
2014,11,05,09,57,3.80
2014,11,05,09,58,4.00
2014,11,05,09,59,3.60
2014,11,05,10,00,3.50
2014,11,05,10,01,4.20
2014,11,05,10,02,3.60
2014,11,05,10,03,4.00
2014,11,05,10,04,3.70
2014,11,05,10,05,2.90
2014,11,05,10,06,3.30
2014,11,05,10,07,3.20
2014,11,05,10,08,3.00
2014,11,05,10,09,2.90
2014,11,05,10,10,2.60
2014,11,05,10,11,3.00
2014,11,05,10,12,3.50
2014,11,05,10,13,3.20
2014,11,05,10,14,3.50
2014,11,05,10,15,3.30
2014,11,05,10,16,3.00
2014,11,05,10,17,3.70
2014,11,05,10,18,4.20
2014,11,05,10,19,3.70
2014,11,05,10,20,4.20
2014,11,05,10,21,3.00
2014,11,05,10,22,3.00
2014,11,05,10,23,3.60
2014,11,05,10,24,1.90
2014,11,05,10,25,2.80
2014,11,05,10,26,3.20
2014,11,05,10,27,3.60
2014,11,05,10,28,3.80
2014,11,05,10,29,3.00
2014,11,05,10,30,3.60
2014,11,05,10,31,2.50
2014,11,05,10,32,2.50
2014,11,05,10,33,3.10
2014,11,05,10,34,3.00
2014,11,05,10,35,3.70
2014,11,05,10,36,2.60
2014,11,05,10,37,1.10
2014,11,05,10,38,2.00
2014,11,05,10,39,3.10
2014,11,05,10,40,2.60
2014,11,05,10,41,2.10
2014,11,05,10,42,2.80
2014,11,05,10,43,3.30
2014,11,05,10,44,2.90
2014,11,05,10,45,1.90
2014,11,05,10,46,1.30
2014,11,05,10,47,1.80
2014,11,05,10,48,2.30
2014,11,05,10,49,2.50
2014,11,05,10,50,3.20
2014,11,05,10,51,3.50
2014,11,05,10,52,3.50
2014,11,05,10,53,2.90
2014,11,05,10,54,3.00
2014,11,05,10,55,2.20
2014,11,05,10,56,1.90
2014,11,05,10,57,2.30
2014,11,05,10,58,1.50
2014,11,05,10,59,1.50
2014,11,05,11,00,1.90
2014,11,05,11,01,1.90
2014,11,05,11,02,2.80
2014,11,05,11,03,3.20
2014,11,05,11,04,2.80
2014,11,05,11,05,3.00
2014,11,05,11,06,3.00
2014,11,05,11,07,2.50
2014,11,05,11,08,3.30
2014,11,05,11,09,3.20
2014,11,05,11,10,3.50
2014,11,05,11,11,4.10
2014,11,05,11,12,3.10
2014,11,05,11,13,2.50
2014,11,05,11,14,2.30
2014,11,05,11,15,2.80
2014,11,05,11,16,3.50
2014,11,05,11,17,4.00
2014,11,05,11,18,2.30
2014,11,05,11,19,2.50
2014,11,05,11,20,3.10
2014,11,05,11,21,3.70
2014,11,05,11,22,3.60
2014,11,05,11,23,3.20
2014,11,05,11,24,3.20
2014,11,05,11,25,3.80
2014,11,05,11,26,3.70
2014,11,05,11,27,3.80
2014,11,05,11,28,3.90
2014,11,05,11,29,4.60
2014,11,05,11,30,4.00
2014,11,05,11,31,3.80
2014,11,05,11,32,3.90
2014,11,05,11,33,3.90
2014,11,05,11,34,1.30
2014,11,05,11,35,2.10
2014,11,05,11,36,4.10
2014,11,05,11,37,4.40
2014,11,05,11,38,5.60
2014,11,05,11,39,5.10
2014,11,05,11,40,4.30
2014,11,05,11,41,3.90
2014,11,05,11,42,4.30
2014,11,05,11,43,4.50
2014,11,05,11,44,3.50
2014,11,05,11,45,2.30
2014,11,05,11,46,4.00
2014,11,05,11,47,4.40
2014,11,05,11,48,3.70
2014,11,05,11,49,3.00
2014,11,05,11,50,2.70
2014,11,05,11,51,4.70
2014,11,05,11,52,4.40
2014,11,05,11,53,4.50
2014,11,05,11,54,3.60
2014,11,05,11,55,5.10
2014,11,05,11,56,3.40
2014,11,05,11,57,4.80
2014,11,05,11,58,5.10
2014,11,05,11,59,3.10
2014,11,05,12,00,4.90
2014,11,05,12,01,4.20
2014,11,05,12,02,3.90
2014,11,05,12,03,3.00
2014,11,05,12,04,2.00
2014,11,05,12,05,2.00
2014,11,05,12,06,4.00
2014,11,05,12,07,2.30
2014,11,05,12,08,3.10
2014,11,05,12,09,4.00
2014,11,05,12,10,3.10
2014,11,05,12,11,4.30
2014,11,05,12,12,3.20
2014,11,05,12,13,4.00
2014,11,05,12,14,3.40
2014,11,05,12,15,3.50
2014,11,05,12,16,4.10
2014,11,05,12,17,2.70
2014,11,05,12,18,2.90
2014,11,05,12,19,3.20
2014,11,05,12,20,3.00
2014,11,05,12,21,4.40
2014,11,05,12,22,4.00
2014,11,05,12,23,4.20
2014,11,05,12,24,4.90
2014,11,05,12,25,4.60
2014,11,05,12,26,4.70
2014,11,05,12,27,4.30
2014,11,05,12,28,4.30
2014,11,05,12,29,3.80
2014,11,05,12,30,3.40
2014,11,05,12,31,2.70
2014,11,05,12,32,2.30
2014,11,05,12,33,3.60
2014,11,05,12,34,2.70
2014,11,05,12,35,3.60
2014,11,05,12,36,3.20
2014,11,05,12,37,2.80
2014,11,05,12,38,3.20
2014,11,05,12,39,3.20
2014,11,05,12,40,3.10
2014,11,05,12,41,3.50
2014,11,05,12,42,3.40
2014,11,05,12,43,3.10
2014,11,05,12,44,2.30
2014,11,05,12,45,2.50
2014,11,05,12,46,2.50
2014,11,05,12,47,2.70
2014,11,05,12,48,2.50
2014,11,05,12,49,3.00
2014,11,05,12,50,2.70
2014,11,05,12,51,1.40
2014,11,05,12,52,2.80
2014,11,05,12,53,1.80
2014,11,05,12,54,2.80
2014,11,05,12,55,1.90
2014,11,05,12,56,4.10
2014,11,05,12,57,3.60
2014,11,05,12,58,1.90
2014,11,05,12,59,3.40
2014,11,05,13,00,2.60
2014,11,05,13,01,3.20
2014,11,05,13,02,3.00
2014,11,05,13,03,2.10
2014,11,05,13,04,3.00
2014,11,05,13,05,2.80
2014,11,05,13,06,2.10
2014,11,05,13,07,3.20
2014,11,05,13,08,2.60
2014,11,05,13,09,2.60
2014,11,05,13,10,3.60
2014,11,05,13,11,3.60
2014,11,05,13,12,4.10
2014,11,05,13,13,3.00
2014,11,05,13,14,2.60
2014,11,05,13,15,2.30
2014,11,05,13,16,2.30
2014,11,05,13,17,1.60
2014,11,05,13,18,0.00
2014,11,05,13,19,0.20
2014,11,05,13,20,0.80
2014,11,05,13,21,1.10
2014,11,05,13,22,1.40
2014,11,05,13,23,3.40
2014,11,05,13,24,2.00
2014,11,05,13,25,2.80
2014,11,05,13,26,3.20
2014,11,05,13,27,2.40
2014,11,05,13,28,1.40
2014,11,05,13,29,2.00
2014,11,05,13,30,2.00
2014,11,05,13,31,3.30
2014,11,05,13,32,2.60
2014,11,05,13,33,2.90
2014,11,05,13,34,1.30
2014,11,05,13,35,1.20
2014,11,05,13,36,2.20
2014,11,05,13,37,3.00
2014,11,05,13,38,3.00
2014,11,05,13,39,3.40
2014,11,05,13,40,3.00
2014,11,05,13,41,2.80
2014,11,05,13,42,1.70
2014,11,05,13,43,2.20
2014,11,05,13,44,2.60
2014,11,05,13,45,4.50
2014,11,05,13,46,3.20
2014,11,05,13,47,3.00
2014,11,05,13,48,3.00
2014,11,05,13,49,2.30
2014,11,05,13,50,2.70
2014,11,05,13,51,1.90
2014,11,05,13,52,2.40
2014,11,05,13,53,3.00
2014,11,05,13,54,3.10
2014,11,05,13,55,2.90
2014,11,05,13,56,3.10
2014,11,05,13,57,1.90
2014,11,05,13,58,2.60
2014,11,05,13,59,2.40
2014,11,05,14,00,1.40
2014,11,05,14,01,1.20
2014,11,05,14,02,1.60
2014,11,05,14,03,1.70
2014,11,05,14,04,2.80
2014,11,05,14,05,3.00
2014,11,05,14,06,3.10
2014,11,05,14,07,1.80
2014,11,05,14,08,2.30
2014,11,05,14,09,2.10
2014,11,05,14,10,1.10
2014,11,05,14,11,1.20
2014,11,05,14,12,2.40
2014,11,05,14,13,1.50
2014,11,05,14,14,2.80
2014,11,05,14,15,3.20
2014,11,05,14,16,1.10
2014,11,05,14,17,0.20
2014,11,05,14,18,0.40
2014,11,05,14,19,1.90
2014,11,05,14,20,2.60
2014,11,05,14,21,2.70
2014,11,05,14,22,2.80
2014,11,05,14,23,2.20
2014,11,05,14,24,2.80
2014,11,05,14,25,1.00
2014,11,05,14,26,0.10
2014,11,05,14,27,1.10
2014,11,05,14,28,2.70
2014,11,05,14,29,3.00
2014,11,05,14,30,3.10
2014,11,05,14,31,3.00
2014,11,05,14,32,1.30
2014,11,05,14,33,1.10
2014,11,05,14,34,0.40
2014,11,05,14,35,0.10
2014,11,05,14,36,1.40
2014,11,05,14,37,2.80
2014,11,05,14,38,3.20
2014,11,05,14,39,2.60
2014,11,05,14,40,2.60
2014,11,05,14,41,2.50
2014,11,05,14,42,3.00
2014,11,05,14,43,3.80
2014,11,05,14,44,3.10
2014,11,05,14,45,2.50
2014,11,05,14,46,2.20
2014,11,05,14,47,3.40
2014,11,05,14,48,3.60
2014,11,05,14,49,2.60
2014,11,05,14,50,2.60
2014,11,05,14,51,3.10
2014,11,05,14,52,3.40
2014,11,05,14,53,2.70
2014,11,05,14,54,1.40
2014,11,05,14,55,2.10
2014,11,05,14,56,3.10
2014,11,05,14,57,2.00
2014,11,05,14,58,1.10
2014,11,05,14,59,0.40
2014,11,05,15,00,0.20
2014,11,05,15,01,0.10
2014,11,05,15,02,1.50
2014,11,05,15,03,3.50
2014,11,05,15,04,2.70
2014,11,05,15,05,1.10
2014,11,05,15,06,0.00
2014,11,05,15,07,0.60
2014,11,05,15,08,3.30
2014,11,05,15,09,0.80
2014,11,05,15,10,0.60
2014,11,05,15,11,0.10
2014,11,05,15,12,0.70
2014,11,05,15,13,0.00
2014,11,05,15,14,0.00
2014,11,05,15,15,0.00
2014,11,05,15,16,0.00
2014,11,05,15,17,0.00
2014,11,05,15,18,0.00
2014,11,05,15,19,0.00
2014,11,05,15,20,0.00
2014,11,05,15,21,0.00
2014,11,05,15,22,0.00
2014,11,05,15,23,0.10
2014,11,05,15,24,0.00
2014,11,05,15,25,0.10
2014,11,05,15,26,0.90
2014,11,05,15,27,1.40
2014,11,05,15,28,0.80
2014,11,05,15,29,0.00
2014,11,05,15,30,0.70
2014,11,05,15,31,2.10
2014,11,05,15,32,0.70
2014,11,05,15,33,0.50
2014,11,05,15,34,0.20
2014,11,05,15,35,0.00
2014,11,05,15,36,0.00
2014,11,05,15,37,0.00
2014,11,05,15,38,0.00
2014,11,05,15,39,1.50
2014,11,05,15,40,0.90
2014,11,05,15,41,1.30
2014,11,05,15,42,1.70
2014,11,05,15,43,1.50
2014,11,05,15,44,1.20
2014,11,05,15,45,0.70
2014,11,05,15,46,0.40
2014,11,05,15,47,0.00
2014,11,05,15,48,0.00
2014,11,05,15,49,0.00
2014,11,05,15,50,0.00
2014,11,05,15,51,0.20
2014,11,05,15,52,0.00
2014,11,05,15,53,0.70
2014,11,05,15,54,1.50
2014,11,05,15,55,1.30
2014,11,05,15,56,0.90
2014,11,05,15,57,0.90
2014,11,05,15,58,0.20
2014,11,05,15,59,0.00
2014,11,05,16,00,0.00
2014,11,05,16,01,0.00
2014,11,05,16,02,0.00
2014,11,05,16,03,0.00
2014,11,05,16,04,0.00
2014,11,05,16,05,0.00
2014,11,05,16,06,0.00
2014,11,05,16,07,0.00
2014,11,05,16,08,0.00
2014,11,05,16,09,0.00
2014,11,05,16,10,0.00
2014,11,05,16,11,0.00
2014,11,05,16,12,0.00
2014,11,05,16,13,0.00
2014,11,05,16,14,0.00
2014,11,05,16,15,0.00
2014,11,05,16,16,0.00
2014,11,05,16,17,0.00
2014,11,05,16,18,0.00
2014,11,05,16,19,0.00
2014,11,05,16,20,0.00
2014,11,05,16,21,0.00
2014,11,05,16,22,0.00
2014,11,05,16,23,0.00
2014,11,05,16,24,0.00
2014,11,05,16,25,0.00
2014,11,05,16,26,0.50
2014,11,05,16,27,0.00
2014,11,05,16,28,0.00
2014,11,05,16,29,0.00
2014,11,05,16,30,0.00
2014,11,05,16,31,0.00
2014,11,05,16,32,0.00
2014,11,05,16,33,0.00
2014,11,05,16,34,0.00
2014,11,05,16,35,0.00
2014,11,05,16,36,0.00
2014,11,05,16,37,0.00
2014,11,05,16,38,0.00
2014,11,05,16,39,0.00
2014,11,05,16,40,0.00
2014,11,05,16,41,0.00
2014,11,05,16,42,0.00
2014,11,05,16,43,0.00
2014,11,05,16,44,0.00
2014,11,05,16,45,0.00
2014,11,05,16,46,0.00
2014,11,05,16,47,0.00
2014,11,05,16,48,0.00
2014,11,05,16,49,0.00
2014,11,05,16,50,0.00
2014,11,05,16,51,0.00
2014,11,05,16,52,0.00
2014,11,05,16,53,0.00
2014,11,05,16,54,0.00
2014,11,05,16,55,0.00
2014,11,05,16,56,0.00
2014,11,05,16,57,0.00
2014,11,05,16,58,0.00
2014,11,05,16,59,0.00
2014,11,05,17,00,0.00
2014,11,05,17,01,0.00
2014,11,05,17,02,0.00
2014,11,05,17,03,0.00
2014,11,05,17,04,0.00
2014,11,05,17,05,0.00
2014,11,05,17,06,0.00
2014,11,05,17,07,0.00
2014,11,05,17,08,0.00
2014,11,05,17,09,0.00
2014,11,05,17,10,0.00
2014,11,05,17,11,0.00
2014,11,05,17,12,0.00
2014,11,05,17,13,0.00
2014,11,05,17,14,0.00
2014,11,05,17,15,0.00
2014,11,05,17,16,0.00
2014,11,05,17,17,0.00
2014,11,05,17,18,0.00
2014,11,05,17,19,0.00
2014,11,05,17,20,0.00
2014,11,05,17,21,0.00
2014,11,05,17,22,0.00
2014,11,05,17,23,0.00
2014,11,05,17,24,0.00
2014,11,05,17,25,0.00
2014,11,05,17,26,0.00
2014,11,05,17,27,0.00
2014,11,05,17,28,0.00
2014,11,05,17,29,0.00
2014,11,05,17,30,0.00
2014,11,05,17,31,0.00
2014,11,05,17,32,0.00
2014,11,05,17,33,0.00
2014,11,05,17,34,0.00
2014,11,05,17,35,0.00
2014,11,05,17,36,0.00
2014,11,05,17,37,0.00
2014,11,05,17,38,0.00
2014,11,05,17,39,0.00
2014,11,05,17,40,0.00
2014,11,05,17,41,0.00
2014,11,05,17,42,0.00
2014,11,05,17,43,0.00
2014,11,05,17,44,0.00
2014,11,05,17,45,0.00
2014,11,05,17,46,0.00
2014,11,05,17,47,0.00
2014,11,05,17,48,0.20
2014,11,05,17,49,0.20
2014,11,05,17,50,0.00
2014,11,05,17,51,0.00
2014,11,05,17,52,0.00
2014,11,05,17,53,0.90
2014,11,05,17,54,1.70
2014,11,05,17,55,1.30
2014,11,05,17,56,0.60
2014,11,05,17,57,1.30
2014,11,05,17,58,0.00
2014,11,05,17,59,0.00
2014,11,05,18,00,0.00
2014,11,05,18,01,0.00
2014,11,05,18,02,0.00
2014,11,05,18,03,0.00
2014,11,05,18,04,0.00
2014,11,05,18,05,0.00
2014,11,05,18,06,0.20
2014,11,05,18,07,1.50
2014,11,05,18,08,1.20
2014,11,05,18,09,0.20
2014,11,05,18,10,0.00
2014,11,05,18,11,0.00
2014,11,05,18,12,0.00
2014,11,05,18,13,0.00
2014,11,05,18,14,0.30
2014,11,05,18,15,0.60
2014,11,05,18,16,0.30
2014,11,05,18,17,0.00
2014,11,05,18,18,0.00
2014,11,05,18,19,0.00
2014,11,05,18,20,0.70
2014,11,05,18,21,1.50
2014,11,05,18,22,0.90
2014,11,05,18,23,0.20
2014,11,05,18,24,0.00
2014,11,05,18,25,0.00
2014,11,05,18,26,0.00
2014,11,05,18,27,0.00
2014,11,05,18,28,0.00
2014,11,05,18,29,0.00
2014,11,05,18,30,0.00
2014,11,05,18,31,0.00
2014,11,05,18,32,0.00
2014,11,05,18,33,0.00
2014,11,05,18,34,0.00
2014,11,05,18,35,0.00
2014,11,05,18,36,0.00
2014,11,05,18,37,0.00
2014,11,05,18,38,0.00
2014,11,05,18,39,0.80
2014,11,05,18,40,0.10
2014,11,05,18,41,0.00
2014,11,05,18,42,0.00
2014,11,05,18,43,0.00
2014,11,05,18,44,0.00
2014,11,05,18,45,0.00
2014,11,05,18,46,0.00
2014,11,05,18,47,0.00
2014,11,05,18,48,0.10
2014,11,05,18,49,1.00
2014,11,05,18,50,1.00
2014,11,05,18,51,0.40
2014,11,05,18,52,0.00
2014,11,05,18,53,0.00
2014,11,05,18,54,0.00
2014,11,05,18,55,0.00
2014,11,05,18,56,0.00
2014,11,05,18,57,0.00
2014,11,05,18,58,0.00
2014,11,05,18,59,0.00
2014,11,05,19,00,0.00
2014,11,05,19,01,0.00
2014,11,05,19,02,0.00
2014,11,05,19,03,0.00
2014,11,05,19,04,0.00
2014,11,05,19,05,1.00
2014,11,05,19,06,0.90
2014,11,05,19,07,1.50
2014,11,05,19,08,1.90
2014,11,05,19,09,2.10
2014,11,05,19,10,1.50
2014,11,05,19,11,0.30
2014,11,05,19,12,0.00
2014,11,05,19,13,0.00
2014,11,05,19,14,0.40
2014,11,05,19,15,0.20
2014,11,05,19,16,0.70
2014,11,05,19,17,0.40
2014,11,05,19,18,0.40
2014,11,05,19,19,0.00
2014,11,05,19,20,0.00
2014,11,05,19,21,0.00
2014,11,05,19,22,0.00
2014,11,05,19,23,0.00
2014,11,05,19,24,0.00
2014,11,05,19,25,0.00
2014,11,05,19,26,0.00
2014,11,05,19,27,0.40
2014,11,05,19,28,1.40
2014,11,05,19,29,0.40
2014,11,05,19,30,1.20
2014,11,05,19,31,1.30
2014,11,05,19,32,0.80
2014,11,05,19,33,1.30
2014,11,05,19,34,1.80
2014,11,05,19,35,1.70
2014,11,05,19,36,1.70
2014,11,05,19,37,1.10
2014,11,05,19,38,1.20
2014,11,05,19,39,1.20
2014,11,05,19,40,0.10
2014,11,05,19,41,1.20
2014,11,05,19,42,0.10
2014,11,05,19,43,0.20
2014,11,05,19,44,0.30
2014,11,05,19,45,0.00
2014,11,05,19,46,0.00
2014,11,05,19,47,0.20
2014,11,05,19,48,0.00
2014,11,05,19,49,0.30
2014,11,05,19,50,0.20
2014,11,05,19,51,0.00
2014,11,05,19,52,0.00
2014,11,05,19,53,0.00
2014,11,05,19,54,0.00
2014,11,05,19,55,0.00
2014,11,05,19,56,0.10
2014,11,05,19,57,0.00
2014,11,05,19,58,0.00
2014,11,05,19,59,0.00
2014,11,05,20,00,0.60
2014,11,05,20,01,0.30
2014,11,05,20,02,0.00
2014,11,05,20,03,0.20
2014,11,05,20,04,1.60
2014,11,05,20,05,1.10
2014,11,05,20,06,1.00
2014,11,05,20,07,0.10
2014,11,05,20,08,0.30
2014,11,05,20,09,1.70
2014,11,05,20,10,1.90
2014,11,05,20,11,2.40
2014,11,05,20,12,1.50
2014,11,05,20,13,0.20
2014,11,05,20,14,0.00
2014,11,05,20,15,0.00
2014,11,05,20,16,0.00
2014,11,05,20,17,0.50
2014,11,05,20,18,0.80
2014,11,05,20,19,0.30
2014,11,05,20,20,0.00
2014,11,05,20,21,0.00
2014,11,05,20,22,0.00
2014,11,05,20,23,0.30
2014,11,05,20,24,1.80
2014,11,05,20,25,1.60
2014,11,05,20,26,1.30
2014,11,05,20,27,0.80
2014,11,05,20,28,0.00
2014,11,05,20,29,0.00
2014,11,05,20,30,0.00
2014,11,05,20,31,0.00
2014,11,05,20,32,0.00
2014,11,05,20,33,0.00
2014,11,05,20,34,0.00
2014,11,05,20,35,0.10
2014,11,05,20,36,0.00
2014,11,05,20,37,0.00
2014,11,05,20,38,0.00
2014,11,05,20,39,0.60
2014,11,05,20,40,1.00
2014,11,05,20,41,0.00
2014,11,05,20,42,0.00
2014,11,05,20,43,0.00
2014,11,05,20,44,0.00
2014,11,05,20,45,0.00
2014,11,05,20,46,0.00
2014,11,05,20,47,0.00
2014,11,05,20,48,0.00
2014,11,05,20,49,0.00
2014,11,05,20,50,0.80
2014,11,05,20,51,1.40
2014,11,05,20,52,1.00
2014,11,05,20,53,1.20
2014,11,05,20,54,1.60
2014,11,05,20,55,2.20
2014,11,05,20,56,0.90
2014,11,05,20,57,0.10
2014,11,05,20,58,0.00
2014,11,05,20,59,0.00
2014,11,05,21,00,0.00
2014,11,05,21,01,0.00
2014,11,05,21,02,0.00
2014,11,05,21,03,0.00
2014,11,05,21,04,0.00
2014,11,05,21,05,0.00
2014,11,05,21,06,0.00
2014,11,05,21,07,0.00
2014,11,05,21,08,0.00
2014,11,05,21,09,0.00
2014,11,05,21,10,0.00
2014,11,05,21,11,0.00
2014,11,05,21,12,0.00
2014,11,05,21,13,0.30
2014,11,05,21,14,0.90
2014,11,05,21,15,0.00
2014,11,05,21,16,0.00
2014,11,05,21,17,0.00
2014,11,05,21,18,0.20
2014,11,05,21,19,0.20
2014,11,05,21,20,0.00
2014,11,05,21,21,0.00
2014,11,05,21,22,0.00
2014,11,05,21,23,0.20
2014,11,05,21,24,1.90
2014,11,05,21,25,2.20
2014,11,05,21,26,0.60
2014,11,05,21,27,0.80
2014,11,05,21,28,0.60
2014,11,05,21,29,0.10
2014,11,05,21,30,0.00
2014,11,05,21,31,1.50
2014,11,05,21,32,0.90
2014,11,05,21,33,0.00
2014,11,05,21,34,0.00
2014,11,05,21,35,1.30
2014,11,05,21,36,1.90
2014,11,05,21,37,1.90
2014,11,05,21,38,1.40
2014,11,05,21,39,0.20
2014,11,05,21,40,0.80
2014,11,05,21,41,0.20
2014,11,05,21,42,0.00
2014,11,05,21,43,0.00
2014,11,05,21,44,0.50
2014,11,05,21,45,0.00
2014,11,05,21,46,0.00
2014,11,05,21,47,0.00
2014,11,05,21,48,0.00
2014,11,05,21,49,0.00
2014,11,05,21,50,0.00
2014,11,05,21,51,0.00
2014,11,05,21,52,0.00
2014,11,05,21,53,0.00
2014,11,05,21,54,1.10
2014,11,05,21,55,1.40
2014,11,05,21,56,1.40
2014,11,05,21,57,1.50
2014,11,05,21,58,0.80
2014,11,05,21,59,0.20
2014,11,05,22,00,0.00
2014,11,05,22,01,0.00
2014,11,05,22,02,0.00
2014,11,05,22,03,0.00
2014,11,05,22,04,0.00
2014,11,05,22,05,1.10
2014,11,05,22,06,2.10
2014,11,05,22,07,1.50
2014,11,05,22,08,1.30
2014,11,05,22,09,1.20
2014,11,05,22,10,0.70
2014,11,05,22,11,1.00
2014,11,05,22,12,0.40
2014,11,05,22,13,0.00
2014,11,05,22,14,0.60
2014,11,05,22,15,1.90
2014,11,05,22,16,0.30
2014,11,05,22,17,0.00
2014,11,05,22,18,0.00
2014,11,05,22,19,0.00
2014,11,05,22,20,0.00
2014,11,05,22,21,0.00
2014,11,05,22,22,0.50
2014,11,05,22,23,0.80
2014,11,05,22,24,0.20
2014,11,05,22,25,0.00
2014,11,05,22,26,0.00
2014,11,05,22,27,0.00
2014,11,05,22,28,0.00
2014,11,05,22,29,0.00
2014,11,05,22,30,0.00
2014,11,05,22,31,0.00
2014,11,05,22,32,0.00
2014,11,05,22,33,1.50
2014,11,05,22,34,2.30
2014,11,05,22,35,1.50
2014,11,05,22,36,0.40
2014,11,05,22,37,0.00
2014,11,05,22,38,0.00
2014,11,05,22,39,0.00
2014,11,05,22,40,0.00
2014,11,05,22,41,0.00
2014,11,05,22,42,0.00
2014,11,05,22,43,0.00
2014,11,05,22,44,1.20
2014,11,05,22,45,2.70
2014,11,05,22,46,1.20
2014,11,05,22,47,0.10
2014,11,05,22,48,0.00
2014,11,05,22,49,0.00
2014,11,05,22,50,0.40
2014,11,05,22,51,2.00
2014,11,05,22,52,2.40
2014,11,05,22,53,1.10
2014,11,05,22,54,0.00
2014,11,05,22,55,0.00
2014,11,05,22,56,0.00
2014,11,05,22,57,0.10
2014,11,05,22,58,1.00
2014,11,05,22,59,0.10
2014,11,05,23,00,0.10
2014,11,05,23,01,3.40
2014,11,05,23,02,3.30
2014,11,05,23,03,0.40
2014,11,05,23,04,2.10
2014,11,05,23,05,3.90
2014,11,05,23,06,3.20
2014,11,05,23,07,2.30
2014,11,05,23,08,0.50
2014,11,05,23,09,1.50
2014,11,05,23,10,2.70
2014,11,05,23,11,3.10
2014,11,05,23,12,1.90
2014,11,05,23,13,1.90
2014,11,05,23,14,0.70
2014,11,05,23,15,0.10
2014,11,05,23,16,0.50
2014,11,05,23,17,0.70
2014,11,05,23,18,0.10
2014,11,05,23,19,0.00
2014,11,05,23,20,0.50
2014,11,05,23,21,1.00
2014,11,05,23,22,1.20
2014,11,05,23,23,0.10
2014,11,05,23,24,0.00
2014,11,05,23,25,0.00
2014,11,05,23,26,0.60
2014,11,05,23,27,0.70
2014,11,05,23,28,0.50
2014,11,05,23,29,0.20
2014,11,05,23,30,1.30
2014,11,05,23,31,1.40
2014,11,05,23,32,2.00
2014,11,05,23,33,1.90
2014,11,05,23,34,1.10
2014,11,05,23,35,0.10
2014,11,05,23,36,0.00
2014,11,05,23,37,0.20
2014,11,05,23,38,2.10
2014,11,05,23,39,3.00
2014,11,05,23,40,3.20
2014,11,05,23,41,3.30
2014,11,05,23,42,2.50
2014,11,05,23,43,0.60
2014,11,05,23,44,0.00
2014,11,05,23,45,0.40
2014,11,05,23,46,1.60
2014,11,05,23,47,2.50
2014,11,05,23,48,2.50
2014,11,05,23,49,2.00
2014,11,05,23,50,2.00
2014,11,05,23,51,2.40
2014,11,05,23,52,2.50
2014,11,05,23,53,1.60
2014,11,05,23,54,1.60
2014,11,05,23,55,0.80
2014,11,05,23,56,0.00
2014,11,05,23,57,0.00
2014,11,05,23,58,1.40
2014,11,05,23,59,0.40
